Location: Dunedin
(45.8670°S, 170.5000°E)
Time: 14:57:58
(UTC+13:00)

Cosmos 1933 - Pass Details

Date: 24 January 2019
Orbit: 548 x 564 km, 82.5° (Epoch: 19 February)

Event Time Altitude Azimuth Distance (km) Brightness Sun altitude
Exits shadow 22:58:19 15° 358° (N) 1,585 5.2 -14.2°
Maximum altitude 23:01:45 79° 84° (E) 589 3.3 -14.6°
Drops below altitude 10° 23:05:56 10° 169° (SSE) 1,896 6.6 -15.1°
Sets 23:08:08 0° 169° (S) 2,804 7.5 -15.3°
